Weather Roundup
Issued by NWS Springfield, MO

Home | Current Version | Previous Version | Text Only | Print | Product List | Glossary On
Versions: 1 2 3 4 5 6 7 8 9 10 11 12 13 14 15 16 17 18 19 20 21 22 23 24 25 26 27 28 29 30 31 32 33 34 35 36 37 38 39 40 41 42 43 44 45 46 47 48 49 50
000
NZUS99 KSGF 300357
HRRSGF

HOURLY WEATHER
NATIONAL WEATHER SERVICE SPRINGFIELD MO
1100 PM CDT SUN MAY 29 2016

......SGF CWA......

CITY           SKY/WX    TMP DP  RH WIND       PRES   REMARKS
SPRINGFIELD    CLOUDY    69  62  78 SE6       30.09R
JOPLIN         CLEAR     71  65  81 CALM      30.08R
WEST PLAINS    CLEAR     66  62  87 CALM      30.12R
ROLLA          CLOUDY    64  61  90 S6        30.08S

......SURROUNDING SGF CWA......

CITY           SKY/WX    TMP DP  RH WIND       PRES   REMARKS
CHANUTE        CLEAR     67  65  93 CALM      30.07R
PARSONS        CLEAR     68  66  93 CALM      30.08R
COFFEYVILLE    CLOUDY    67  66  97 E5        30.07R
EMPORIA        PTCLDY    67  64  90 S7        30.06S
HARRISON AR    CLOUDY    68  63  84 CALM      30.11R

......KANSAS AND MISSOURI......

CITY           SKY/WX    TMP DP  RH WIND       PRES   REMARKS
KANSAS CTY INT CLOUDY    69  60  73 S7        30.06R
SEDALIA        CLOUDY    71  64  78 S5        30.08S
ST JOSEPH      CLOUDY    72  61  68 CALM      30.05R
ST LOUIS       PTCLDY    75  60  59 CALM      30.06F
WICHITA        CLOUDY    66  58  75 S6        30.07R
TOPEKA         CLOUDY    71  65  81 CALM      30.05R
OLATHE         CLOUDY    70  62  76 S3        30.07R

......TENNESSEE......

CITY           SKY/WX    TMP DP  RH WIND       PRES   REMARKS
MEMPHIS        NOT AVBL
NASHVILLE      PTCLDY    74  66  76 CALM      30.05S

......ARKANSAS.......

CITY           SKY/WX    TMP DP  RH WIND       PRES   REMARKS
FAYETTEVILLE   CLOUDY    63  63 100 CALM      30.11R
FT SMITH       CLOUDY    78  67  68 S3        30.08R
LITTLE ROCK    PTCLDY    67  63  87 CALM      30.09R

......OKLAHOMA.......

CITY           SKY/WX    TMP DP  RH WIND       PRES   REMARKS
TULSA          CLOUDY    72  61  68 SE8       30.05R
PONCA CITY     CLOUDY    73  61  65 SE13      30.05R
MCALESTER      CLOUDY    72  69  90 CALM      30.07S
OKLAHOMA CITY  MOCLDY    69  59  70 W6        30.10R THUNDER

......IOWA............

CITY           SKY/WX    TMP DP  RH WIND       PRES   REMARKS
DES MOINES     NOT AVBL
QUAD CITIES    CLEAR     71  56  58 SW7       30.02R

......ILLINOIS........

CITY           SKY/WX    TMP DP  RH WIND       PRES   REMARKS
QUINCY         CLOUDY    69  59  70 S6        30.06R
CHICAGO        PTCLDY    70  58  65 W6        30.00R




USA.gov is the U.S. government's official web portal to all federal, state and local government web resources and services.